Powrót do katalogu

STARLINK-37861

AktywnyŁącznośćSSO
NORAD 69552·PAYLOAD·🇺🇸 United States

Wystrzelony Jun 15, 2026 z Vandenberg Space Force Base

Loading…

Następne Przeloty (najbliższe 24 godziny)

TLE

ŚwieżeSource: CelesTrak SupGP

Epoka: Sep 14, 2026, 23:07 UTC

1 69552C 26135G   26257.96368056  .00059401  00000+0  18441-2 0  2574
2 69552  97.2839 285.6988 0001384  84.2363 137.0024 15.33405940    17

Śledź STARLINK-37861 w czasie rzeczywistym z AllMySat

Download on the App Store